Location: Newark
(34.6283°N, 36.0776°E)
Time: 08:15:02
(UTC+00:00)

Vanguard 2 - All Passes

Search period start: 22 October 2019 00:00
Search period end: 01 November 2019 00:00
Orbit: 554 x 2937 km, 32.9° (Epoch: 21 October)

Date Brightness Start Highest point End Pass type
(mag) Time Alt. Az. Time Alt. Az. Time Alt. Az.
22 Oct - 13:06:21 10° SSW 13:11:08 26° SE 13:18:01 10° E daylight
22 Oct - 15:12:10 10° WSW 15:19:21 69° SSE 15:31:42 10° E visible
22 Oct - 17:20:04 10° W 17:29:49 82° S 17:45:45 10° E visible
22 Oct - 19:29:02 10° W 19:41:32 63° SSW 19:58:53 10° SE visible
22 Oct - 21:40:05 10° W 21:53:17 34° SW 22:08:14 10° SSE night (unlit)
23 Oct - 13:23:27 10° SSW 13:28:39 35° SSE 13:36:40 10° E daylight
23 Oct - 15:30:00 10° WSW 15:37:20 77° S 15:50:04 10° E visible
23 Oct - 17:38:03 10° W 17:48:00 79° S 18:04:05 10° ESE visible
23 Oct - 19:47:11 10° W 19:59:37 55° SSW 20:16:32 10° SE visible
23 Oct - 21:59:10 10° W 22:11:10 27° SW 22:24:29 10° S night (unlit)
24 Oct - 13:40:51 10° SW 13:46:18 47° SSE 13:55:08 10° E daylight
24 Oct - 15:47:54 10° W 15:55:25 81° S 16:08:27 10° E visible
24 Oct - 17:56:03 10° W 18:06:10 73° SSW 18:22:17 10° ESE visible
24 Oct - 20:05:27 10° W 20:17:41 46° SSW 20:33:54 10° SE visible
24 Oct - 22:19:00 10° WSW 22:29:02 20° SW 22:39:55 10° S night (unlit)
25 Oct - 11:53:44 10° S 11:56:38 15° SE 12:00:09 10° ESE daylight
25 Oct - 13:58:28 10° WSW 14:04:06 59° SSE 14:13:28 10° E daylight
25 Oct - 16:05:50 10° W 16:13:32 82° S 16:26:50 10° E visible
25 Oct - 18:14:04 10° W 18:24:17 65° SSW 18:40:20 10° ESE visible
25 Oct - 20:23:55 10° W 20:35:43 37° SSW 20:50:55 10° SSE visible
25 Oct - 22:40:39 10° WSW 22:46:57 13° SW 22:53:35 10° SSW night (unlit)
26 Oct - 12:10:19 10° SSW 12:14:07 23° SE 12:19:12 10° E daylight
26 Oct - 14:16:13 10° WSW 14:22:00 69° SSE 14:31:47 10° E daylight
26 Oct - 16:23:46 10° W 16:31:39 79° S 16:45:11 10° ESE visible
26 Oct - 18:32:09 10° W 18:42:24 57° SSW 18:58:09 10° SE visible
26 Oct - 20:42:42 10° W 20:53:44 29° SSW 21:07:27 10° SSE visible
27 Oct - 12:27:28 10° SW 12:31:43 33° SSE 12:37:46 10° E daylight
27 Oct - 14:34:03 10° WSW 14:39:59 76° S 14:50:06 10° E daylight
27 Oct - 16:41:43 10° W 16:49:44 74° S 17:03:27 10° ESE visible
27 Oct - 18:50:18 10° W 19:00:30 48° SSW 19:15:42 10° SE visible
27 Oct - 21:02:03 10° W 21:11:45 22° SW 21:23:19 10° S visible
28 Oct - 12:44:57 10° SW 12:49:25 45° SSE 12:56:08 10° E daylight
28 Oct - 14:51:57 10° W 14:58:00 80° S 15:08:25 10° E visible
28 Oct - 16:59:42 10° W 17:07:50 66° SSW 17:21:35 10° ESE visible
28 Oct - 19:08:37 10° W 19:18:35 39° SSW 19:32:54 10° SSE visible
28 Oct - 21:22:32 10° WSW 21:29:47 15° SW 21:37:58 10° S night (unlit)
29 Oct - 10:57:30 10° S 10:59:48 14° SE 11:02:22 10° ESE daylight
29 Oct - 13:02:36 10° WSW 13:07:14 58° SSE 13:14:24 10° E daylight
29 Oct - 15:09:52 10° W 15:16:04 79° S 15:26:43 10° E visible
29 Oct - 17:17:42 10° W 17:25:56 57° SSW 17:39:31 10° SE visible
29 Oct - 19:27:12 10° W 19:36:40 30° SSW 19:49:40 10° SSE visible
30 Oct - 11:14:09 10° SSW 11:17:24 22° SSE 11:21:18 10° E daylight
30 Oct - 13:20:24 10° WSW 13:25:08 69° S 13:32:37 10° E daylight
30 Oct - 15:27:47 10° W 15:34:06 74° S 15:44:59 10° ESE visible
30 Oct - 17:35:47 10° W 17:44:01 48° SSW 17:57:12 10° SE visible
30 Oct - 19:46:14 10° WSW 19:54:47 23° SSW 20:05:50 10° SSE visible
31 Oct - 11:31:25 10° SW 11:35:06 32° SSE 11:39:45 10° E daylight
31 Oct - 13:38:15 10° W 13:43:06 76° S 13:50:51 10° E daylight
31 Oct - 15:45:44 10° W 15:52:09 67° SSW 16:03:08 10° ESE visible
31 Oct - 17:54:00 10° W 18:02:06 39° SSW 18:14:35 10° SE visible
31 Oct - 20:06:12 10° WSW 20:12:55 16° SSW 20:20:59 10° S visible
